Location: Caltech
(34.1382°N, 118.1253°W)
Time: 15:18:49
(UTC-07:00)

OAO 2 Rocket - Visible Passes

Search period start: 25 April 2017 00:00
Search period end: 05 May 2017 00:00
Orbit: 677 x 746 km, 35.0° (Epoch: 24 April)

Date Brightness Start Highest point End Pass type
(mag) Time Alt. Az. Time Alt. Az. Time Alt. Az.
28 Apr 5.6 05:16:34 10° S 05:19:43 16° SE 05:22:50 10° ESE visible
30 Apr 4.9 05:04:27 10° SSW 05:08:48 27° SSE 05:13:09 10° E visible
01 May 5.2 04:09:56 17° SSE 04:11:16 18° SSE 04:14:50 10° ESE visible
02 May 5.9 03:15:22 10° SE 03:15:22 10° SE 03:15:35 10° ESE visible
02 May 4.2 04:54:19 17° SW 04:57:57 41° SSE 05:02:54 10° E visible
03 May 4.5 03:59:42 29° SSE 04:00:21 30° SSE 04:04:56 10° E visible
04 May 5.6 03:05:01 16° ESE 03:05:01 16° ESE 03:06:41 10° E visible
04 May 3.6 04:43:58 23° SW 04:47:10 61° SSE 04:52:24 10° E visible
